Weather History for Phoenix Deer Valley, AZ

Change the Weather History Date:

Thursday, December 13, 2012

  Actual Average Record
Temperature  
Mean Temperature 54 °F -  
Max Temperature 66 °F 63 °F 78 °F (2010)
Min Temperature 42 °F 42 °F 33 °F (2001)
Degree Days  
Heating Degree Days 11    
Growing Degree Days 4 (Base 50)    
Moisture  
Dew Point 32 °F    
Average Humidity 44    
Maximum Humidity 94    
Minimum Humidity 22    
Precipitation  
Precipitation 0.08 in - - ()
Sea Level Pressure  
Sea Level Pressure 29.81 in    
Wind  
Wind Speed 7 mph (ESE)    
Max Wind Speed 14 mph    
Max Gust Speed 17 mph    
Visibility 10 miles    
Events Rain    
Averages and records for this station are not official NWS values.
T = Trace of Precipitation, MM = Missing Value Source: NWS Daily Summary

Daily Weather History Graph

Daily Weather History Graph

Search for Another Location

Airport:

Trip Planner

Search our weather history database for the weather conditions in past years. The results will help you decide how hot, cold, wet, or windy it might be!

Date:

Astronomy

Dec. 13, 2012 Rise Set
Actual Time 7:24 AM MST 5:20 PM MST
Civil Twilight 6:56 AM MST 5:48 PM MST
Nautical Twilight 6:25 AM MST 6:19 PM MST
Astronomical Twilight 5:55 AM MST 6:50 PM MST
Moon 7:37 AM MST (12/13) 6:06 PM MST (12/13)
Length of Visible Light 10h 51m
Length of Day
9h 56m
New Moon, 0% of the Moon is Illuminated
Dec 13
New Moon
Dec 19
First Quarter
Dec 28
Full
Jan 4
Last Quarter
Jan 11
New

Hourly Weather History & Observations

Time (MST) Temp. Windchill Dew Point Humidity Pressure Visibility Wind Dir Wind Speed Gust Speed Precip Events Conditions
12:53 AM 46.0 °F 44.8 °F 12.9 °F 26% 29.88 in 10.0 mi NNW 3.5 mph - N/A   Clear
1:53 AM 52.0 °F - 15.1 °F 23% 29.87 in 10.0 mi East 11.5 mph - N/A   Clear
2:53 AM 55.0 °F - 17.1 °F 23% 29.85 in 10.0 mi East 9.2 mph - N/A   Clear
3:53 AM 51.1 °F - 17.1 °F 26% 29.86 in 10.0 mi ESE 4.6 mph - N/A   Clear
4:53 AM 51.1 °F - 18.0 °F 27% 29.86 in 9.0 mi East 5.8 mph - N/A   Clear
5:53 AM 51.1 °F - 19.0 °F 28% 29.86 in 10.0 mi Calm Calm - N/A   Clear
6:53 AM 42.1 °F - 17.1 °F 37% 29.88 in 10.0 mi Calm Calm - N/A   Clear
7:53 AM 51.1 °F - 21.0 °F 31% 29.88 in 10.0 mi ESE 5.8 mph - N/A   Clear
8:53 AM 54.0 °F - 21.9 °F 29% 29.88 in 10.0 mi East 6.9 mph - N/A   Clear
9:53 AM 61.0 °F - 21.9 °F 22% 29.88 in 10.0 mi SE 10.4 mph - N/A   Unknown
10:53 AM 62.1 °F - 24.1 °F 23% 29.89 in 10.0 mi SSE 10.4 mph - N/A   Scattered Clouds
11:53 AM 64.9 °F - 28.0 °F 25% 29.88 in 10.0 mi SE 6.9 mph - N/A   Clear
12:53 PM 66.0 °F - 32.0 °F 28% 29.85 in 10.0 mi SE 9.2 mph 17.3 mph N/A   Mostly Cloudy
1:53 PM 64.9 °F - 34.0 °F 32% 29.82 in 10.0 mi SE 8.1 mph - N/A   Overcast
2:53 PM 66.9 °F - 37.0 °F 33% 29.78 in 10.0 mi SSE 10.4 mph - N/A   Overcast
4:53 PM 66.0 °F - 39.9 °F 38% 29.75 in 10.0 mi SSE 13.8 mph - N/A   Overcast
5:53 PM 63.0 °F - 45.0 °F 52% 29.73 in 10.0 mi SSE 8.1 mph - 0.00 in Rain Light Rain
6:53 PM 57.0 °F - 51.1 °F 81% 29.74 in 10.0 mi Calm Calm - 0.01 in   Scattered Clouds
7:53 PM 55.9 °F - 50.0 °F 80% 29.70 in 10.0 mi NNE 10.4 mph - N/A   Mostly Cloudy
8:53 PM 55.9 °F - 50.0 °F 80% 29.68 in 10.0 mi NE 3.5 mph - 0.00 in Rain Light Rain
9:53 PM 55.0 °F - 52.0 °F 89% 29.70 in 5.0 mi SSE 4.6 mph - 0.07 in Rain Light Rain
11:21 PM 53.6 °F - 51.8 °F 94% 29.70 in 10.0 mi ESE 12.7 mph - 0.00 in   Overcast
11:53 PM 55.0 °F - 53.1 °F 93% 29.65 in 10.0 mi ESE 11.5 mph 17.3 mph 0.00 in   Mostly Cloudy